ARIRANG-3 (KOMPSAT-3)

Last updated on Mon Sep 21 2026 00:02:45 GMT+0000 (Coordinated Universal Time)

1 38338U 12025B 26263.62783312 .00000246 00000+0 57977-4 0 9996 2 38338 98.1282 219.4929 0005553 161.4511 198.6894 14.62274680765294
UTC large
Height (km)
Speed (km/s)
/
Latitude / Longitude
Inclination (degrees)
Orbital Period (minutes)
Azimuth
Elevation
Range (km)
Doppler Factor

Next 0 passes for location: London (51.5072 / 0.1276)

No passes found over London.
ARIRANG-3 (KOMPSAT-3)